{"data":{"norad_id":69436,"intl_designator":"2026-126S","name":"STARLINK-37800","alt_names":[],"object_type":"PAYLOAD","status":"ACTIVE","operator":null,"country":"US","launch_date":"2026-06-07","launch_site_code":"AFWTR","launch_vehicle":null,"mission":null,"orbit_class":"UNKNOWN","rcs_meters":null,"size_class":null,"mass_kg":null,"dimensions":null,"purposes":["comms"],"wikipedia_slug":null,"has_3d_model":false,"image_url":null,"decayed_at":null,"tle_current":{"epoch":"2026-09-19T09:20:20.349024Z","epoch_age_seconds":121458,"freshness":"FRESH","line1":"1 69436U 26126S   26262.38912441  .00014785  00000+0  45941-3 0  9995","line2":"2 69436  97.2844 123.6330 0001996  90.2966 269.8506 15.33442357 17358","mean_motion":15.33442357,"eccentricity":0.0001996,"inclination_deg":97.2844,"raan_deg":123.633,"arg_perigee_deg":90.2966,"mean_anomaly_deg":269.8506,"bstar":0.00045941,"rev_number":1735,"period_min":93.906366511043,"perigee_km":464.18503806549,"apogee_km":466.91703833034,"semimajor_km":6843.6880381979,"source":"CELESTRAK","updated_at":"2026-09-20T09:00:44.197426Z"}}}